Terminal Aerodrome Forecast
Issued by NWS Sterling, VA

Current Version | Previous Version | Graphics & Text | Print | Product List | Glossary On
Versions: 1 2 3 4 5 6 7 8 9 10 11 12 13 14 15 16 17 18 19 20 21 22
000
FTUS41 KLWX 191700
TAFDCA
TAF
KDCA 191720Z 1918/2018 32017G27KT P6SM FEW045
     FM192200 31009KT P6SM FEW250
     FM200400 VRB04KT P6SM SKC
     FM201400 19008KT P6SM SCT250=

USA.gov is the U.S. government's official web portal to all federal, state and local government web resources and services.